Tracking 23762 objects as of 22-Oct-2021
HD Live streaming from Space Station
objects crossing your sky now

SL-8 R/B

Track SL-8 R/B now!
10-day predictions


NORAD ID: 11511
Int'l Code: 1979-078B
Perigee: 765.3 km
Apogee: 786.2 km
Inclination: 74.0 °
Period: 100.2 minutes
Semi major axis: 7146 km
RCS: 4.942 m2 (large)
Launch date: August 28, 1979
Source: Commonwealth of Independent States (former USSR) (CIS)
Launch site: PLESETSK MISSILE AND SPACE COMPLEX (PKMTR)

Note: This is a ROCKET BODY
aabbcc
Your satellite tracking list
Your tracking list is empty




NASA's NSSDC Master Catalog

Two Line Element Set (TLE):
1 11511U 79078B   21294.39277799  .00000086  00000-0  37957-4 0  9990
2 11511  74.0343 277.5854 0014661 137.3327 222.8968 14.36945240206298
Source of the keplerian elements: AFSPC